Time,TemperatureF,DewpointF,PressureIn,WindDirection,WindDirectionDegrees,WindSpeedMPH,WindSpeedGustMPH,Humidity,HourlyPrecipIn,Conditions,Clouds,dailyrainin,SolarRadiationWatts/m^2,SoftwareType,DateUTC
2013-04-14 00:22:00,15.0,5.0,-100.00,ESE,102,0.0,0.0,64,0.00,,,0.00,0.000000,,2013-04-14 08:22:00,
2013-04-14 00:42:00,15.0,5.0,-100.00,ESE,102,0.0,0.0,64,0.00,,,0.00,0.000000,,2013-04-14 08:42:00,
2013-04-14 00:52:00,15.0,5.0,-100.00,ESE,102,0.0,0.0,64,0.00,,,0.00,0.000000,,2013-04-14 08:52:00,
2013-04-14 01:22:00,12.0,3.0,-100.00,East,93,1.0,2.0,67,0.00,,,0.00,0.000000,,2013-04-14 09:22:00,
2013-04-14 02:22:00,14.0,6.0,-100.00,ENE,74,0.0,2.0,69,-99.99,,,0.00,0.000000,,2013-04-14 10:22:00,
2013-04-14 02:42:00,14.0,6.0,-100.00,ENE,74,0.0,2.0,69,-99.99,,,0.00,0.000000,,2013-04-14 10:42:00,
2013-04-14 02:52:00,14.0,6.0,-100.00,ENE,74,0.0,2.0,69,-99.99,,,0.00,0.000000,,2013-04-14 10:52:00,
2013-04-14 03:22:00,16.0,8.0,-100.00,East,84,0.0,2.0,69,0.00,,,0.00,0.000000,,2013-04-14 11:22:00,
2013-04-14 03:32:00,16.0,8.0,-100.00,East,84,0.0,2.0,69,0.00,,,0.00,0.000000,,2013-04-14 11:32:00,
2013-04-14 03:42:00,16.0,8.0,-100.00,East,84,0.0,2.0,69,0.00,,,0.00,0.000000,,2013-04-14 11:42:00,
2013-04-14 03:52:00,16.0,8.0,-100.00,East,84,0.0,2.0,69,0.00,,,0.00,0.000000,,2013-04-14 11:52:00,
2013-04-14 04:21:00,14.0,5.0,-100.00,ENE,70,0.0,0.0,68,0.00,,,0.00,0.000000,,2013-04-14 12:21:00,
2013-04-14 04:32:00,14.0,5.0,-100.00,ENE,70,0.0,0.0,68,0.00,,,0.00,0.000000,,2013-04-14 12:32:00,
2013-04-14 05:22:00,9.0,2.0,-100.00,ENE,78,0.0,2.0,71,0.00,,,0.00,0.000000,,2013-04-14 13:22:00,
2013-04-14 07:22:00,4.0,-2.0,-100.00,ESE,111,2.0,3.0,74,-99.99,,,0.00,2.000000,,2013-04-14 15:22:00,
2013-04-14 10:22:00,31.0,9.0,-100.00,North,349,2.0,4.0,39,-99.99,,,0.00,236.000000,,2013-04-14 18:22:00,
2013-04-14 10:32:00,31.0,9.0,-100.00,North,349,2.0,4.0,39,-99.99,,,0.00,236.000000,,2013-04-14 18:32:00,
2013-04-14 10:42:00,31.0,9.0,-100.00,North,349,2.0,4.0,39,-99.99,,,0.00,236.000000,,2013-04-14 18:42:00,
2013-04-14 10:52:00,31.0,9.0,-100.00,North,349,2.0,4.0,39,-99.99,,,0.00,236.000000,,2013-04-14 18:52:00,
2013-04-14 11:22:00,33.0,5.0,-100.00,WSW,245,3.0,7.0,30,0.00,,,0.00,385.000000,,2013-04-14 19:22:00,
2013-04-14 11:32:00,33.0,5.0,-100.00,WSW,245,3.0,7.0,30,0.00,,,0.00,385.000000,,2013-04-14 19:32:00,
2013-04-14 11:42:00,33.0,5.0,-100.00,WSW,245,3.0,7.0,30,0.00,,,0.00,385.000000,,2013-04-14 19:42:00,
2013-04-14 11:52:00,33.0,5.0,-100.00,WSW,245,3.0,7.0,30,0.00,,,0.00,385.000000,,2013-04-14 19:52:00,
2013-04-14 12:22:00,34.0,8.0,-100.00,WSW,258,4.0,7.0,33,0.00,,,0.00,477.000000,,2013-04-14 20:22:00,
2013-04-14 12:32:00,34.0,8.0,-100.00,WSW,258,4.0,7.0,33,0.00,,,0.00,477.000000,,2013-04-14 20:32:00,
2013-04-14 12:42:00,34.0,8.0,-100.00,WSW,258,4.0,7.0,33,0.00,,,0.00,477.000000,,2013-04-14 20:42:00,
2013-04-14 12:52:00,34.0,8.0,-100.00,WSW,258,4.0,7.0,33,0.00,,,0.00,477.000000,,2013-04-14 20:52:00,
2013-04-14 13:22:00,36.0,10.0,-100.00,SW,228,4.0,9.0,33,0.00,,,0.00,556.000000,,2013-04-14 21:22:00,
2013-04-14 13:33:00,36.0,10.0,-100.00,SW,228,4.0,9.0,33,0.00,,,0.00,556.000000,,2013-04-14 21:33:00,
2013-04-14 13:43:00,36.0,10.0,-100.00,SW,228,4.0,9.0,33,0.00,,,0.00,556.000000,,2013-04-14 21:43:00,
2013-04-14 13:52:00,36.0,10.0,-100.00,SW,228,4.0,9.0,33,0.00,,,0.00,556.000000,,2013-04-14 21:52:00,
2013-04-14 14:23:00,38.0,9.0,-100.00,WSW,257,3.0,9.0,30,0.00,,,0.00,599.000000,,2013-04-14 22:23:00,
2013-04-14 14:32:00,38.0,9.0,-100.00,WSW,257,3.0,9.0,30,0.00,,,0.00,599.000000,,2013-04-14 22:32:00,
2013-04-14 14:43:00,38.0,9.0,-100.00,WSW,257,3.0,9.0,30,0.00,,,0.00,599.000000,,2013-04-14 22:43:00,
2013-04-14 14:52:00,38.0,9.0,-100.00,WSW,257,3.0,9.0,30,0.00,,,0.00,599.000000,,2013-04-14 22:52:00,
2013-04-14 15:22:00,38.0,4.0,-100.00,WSW,248,4.0,10.0,24,0.00,,,0.00,606.000000,,2013-04-14 23:22:00,
2013-04-14 15:32:00,38.0,4.0,-100.00,WSW,248,4.0,10.0,24,0.00,,,0.00,606.000000,,2013-04-14 23:32:00,
2013-04-14 15:42:00,38.0,4.0,-100.00,WSW,248,4.0,10.0,24,0.00,,,0.00,606.000000,,2013-04-14 23:42:00,
2013-04-14 15:52:00,38.0,4.0,-100.00,WSW,248,4.0,10.0,24,0.00,,,0.00,606.000000,,2013-04-14 23:52:00,
2013-04-14 16:22:00,41.0,4.0,-100.00,WSW,245,3.0,8.0,21,0.00,,,0.00,573.000000,,2013-04-15 00:22:00,
2013-04-14 16:32:00,41.0,4.0,-100.00,WSW,245,3.0,8.0,21,0.00,,,0.00,573.000000,,2013-04-15 00:32:00,
2013-04-14 16:42:00,41.0,4.0,-100.00,WSW,245,3.0,8.0,21,0.00,,,0.00,573.000000,,2013-04-15 00:42:00,
2013-04-14 16:52:00,41.0,4.0,-100.00,WSW,245,3.0,8.0,21,0.00,,,0.00,573.000000,,2013-04-15 00:52:00,
2013-04-14 17:23:00,40.0,3.0,-100.00,West,270,4.0,10.0,21,0.00,,,0.00,508.000000,,2013-04-15 01:23:00,
2013-04-14 17:32:00,40.0,3.0,-100.00,West,270,4.0,10.0,21,0.00,,,0.00,508.000000,,2013-04-15 01:32:00,
2013-04-14 18:22:00,41.0,8.0,-100.00,West,267,3.0,9.0,25,0.00,,,0.00,416.000000,,2013-04-15 02:22:00,
2013-04-14 18:32:00,41.0,8.0,-100.00,West,267,3.0,9.0,25,0.00,,,0.00,416.000000,,2013-04-15 02:32:00,
2013-04-14 18:42:00,41.0,8.0,-100.00,West,267,3.0,9.0,25,0.00,,,0.00,416.000000,,2013-04-15 02:42:00,
2013-04-14 18:52:00,41.0,8.0,-100.00,West,267,3.0,9.0,25,0.00,,,0.00,416.000000,,2013-04-15 02:52:00,
2013-04-14 19:22:00,39.0,9.0,-100.00,SW,219,5.0,9.0,29,0.00,,,0.00,304.000000,,2013-04-15 03:22:00,
2013-04-14 19:32:00,39.0,9.0,-100.00,SW,219,5.0,9.0,29,0.00,,,0.00,304.000000,,2013-04-15 03:32:00,
2013-04-14 19:43:00,39.0,9.0,-100.00,SW,219,5.0,9.0,29,0.00,,,0.00,304.000000,,2013-04-15 03:43:00,
2013-04-14 19:53:00,39.0,9.0,-100.00,SW,219,5.0,9.0,29,0.00,,,0.00,304.000000,,2013-04-15 03:53:00,
2013-04-14 20:22:00,37.0,4.0,-100.00,WNW,285,2.0,6.0,25,0.00,,,0.00,172.000000,,2013-04-15 04:22:00,
2013-04-14 21:23:00,29.0,9.0,-100.00,SSW,204,1.0,5.0,42,0.00,,,0.00,47.000000,,2013-04-15 05:23:00,
2013-04-14 21:32:00,29.0,9.0,-100.00,SSW,204,1.0,5.0,42,0.00,,,0.00,47.000000,,2013-04-15 05:32:00,
2013-04-14 21:42:00,29.0,9.0,-100.00,SSW,204,1.0,5.0,42,0.00,,,0.00,47.000000,,2013-04-15 05:42:00,
2013-04-14 21:52:00,29.0,9.0,-100.00,SSW,204,1.0,5.0,42,0.00,,,0.00,47.000000,,2013-04-15 05:52:00,
2013-04-14 22:22:00,22.0,12.0,-100.00,East,80,0.0,0.0,65,0.00,,,0.00,4.000000,,2013-04-15 06:22:00,
2013-04-14 22:42:00,22.0,12.0,-100.00,East,80,0.0,0.0,65,0.00,,,0.00,4.000000,,2013-04-15 06:42:00,
2013-04-14 22:52:00,22.0,12.0,-100.00,East,80,0.0,0.0,65,0.00,,,0.00,4.000000,,2013-04-15 06:52:00,
2013-04-14 23:42:00,18.0,8.0,-100.00,East,87,0.0,0.0,63,0.00,,,0.00,0.000000,,2013-04-15 07:42:00,
2013-04-14 23:52:00,18.0,8.0,-100.00,East,87,0.0,0.0,63,0.00,,,0.00,0.000000,,2013-04-15 07:52:00,